DW5621 Weather Reports


Display with metric or nautical units.
time (UTC)temp
F
wind
direction
speed
MPH
gust
MPH
rain 1hr
in
rain 24hr
in
rain mn
in
humidity
%
barometer
mb
20260506083636 52 339 6.0 17.0 0.00 0.00 0.00 63 1012.8
20260506082736 53 355 4.0 14.0 0.00 0.00 0.00 65 1012.6
20260506081836 52 357 5.0 14.0 0.00 0.00 0.00 67 1012.7
20260506080936 51 4 5.0 14.0 0.00 0.00 0.00 68 1012.9
20260506072736 49 348 4.0 12.0 0.00 0.00 0.00 74 1012.7
20260506071836 49 332 4.0 12.0 0.00 0.00 0.00 75 1012.8
20260506070957 48 347 3.0 11.0 0.00 0.00 0.00 76 1012.7
20260506061836 47 351 5.0 13.0 0.00 0.00 0.00 78 1012.6
20260506060936 47 359 3.0 11.0 0.00 0.00 0.00 78 1012.5
20260506050936 47 352 4.0 10.0 0.00 0.00 0.00 76 1012.2
20260506044536 47 4 2.0 10.0 0.00 0.00 0.00 76 1012.1
20260506043636 48 354 3.0 10.0 0.00 0.00 0.00 76 1012.1
20260506042736 48 352 3.0 11.0 0.00 0.00 0.00 77 1012.1
20260506041857 48 351 3.0 11.0 0.00 0.00 0.00 77 1012.1
20260506040936 48 342 2.0 8.0 0.00 0.00 0.00 76 1012.1
20260506040036 48 354 3.0 10.0 0.00 0.00 0.00 76 1012.1
20260506035436 48 349 2.0 10.0 0.00 0.00 0.00 76 1012.0
20260506034536 49 339 3.0 10.0 0.00 0.00 0.00 75 1012.0
20260506033636 49 5 2.0 7.0 0.00 0.00 0.00 75 1012.1
20260506032736 49 353 1.0 10.0 0.00 0.00 0.00 75 1012.1
20260506031836 49 6 2.0 6.0 0.00 0.00 0.00 74 1012.1
20260506030957 49 10 3.0 14.0 0.00 0.00 0.00 74 1012.1
20260506030036 49 13 3.0 14.0 0.00 0.00 0.00 74 1012.2
20260506025437 49 20 2.0 10.0 0.00 0.00 0.00 74 1012.2
20260506024536 49 18 2.0 8.0 0.00 0.00 0.00 74 1012.2
20260506023636 49 21 2.0 10.0 0.00 0.00 0.00 74 1012.3
20260506022736 50 7 2.0 7.0 0.00 0.00 0.00 75 1012.4
20260506021836 50 354 2.0 10.0 0.00 0.00 0.00 75 1012.5
20260506020936 50 4 2.0 8.0 0.00 0.00 0.00 75 1012.5
20260506020039 50 358 3.0 12.0 0.00 0.00 0.00 75 1012.5
20260506015436 50 358 3.0 12.0 0.00 0.00 0.00 76 1012.6
20260506014536 50 360 3.0 10.0 0.00 0.00 0.00 77 1012.6
20260506013636 50 7 2.0 7.0 0.00 0.00 0.00 77 1012.6
20260506012736 50 4 2.0 7.0 0.00 0.00 0.00 77 1012.6
20260506011836 50 6 1.0 7.0 0.00 0.00 0.00 76 1012.7
20260506010936 51 31 1.0 5.0 0.00 0.00 0.00 76 1012.7
20260506010036 51 43 1.0 4.0 0.00 0.00 0.00 75 1012.6
20260506005436 51 33 1.0 7.0 0.00 0.00 0.00 75 1012.5
20260506004557 51 39 2.0 8.0 0.00 0.00 0.00 75 1012.5
20260506003657 51 40 2.0 6.0 0.00 0.00 0.00 74 1012.7
20260506002736 51 23 1.0 6.0 0.00 0.00 0.00 74 1012.7
20260506001836 51 36 2.0 7.0 0.00 0.00 0.00 74 1012.8
20260506000936 51 38 2.0 10.0 0.00 0.00 0.00 73 1012.9
20260506000057 51 43 2.0 7.0 0.00 0.00 0.00 73 1012.9
20260505235436 51 39 2.0 7.0 0.00 0.00 0.00 73 1012.8
20260505234536 51 32 2.0 8.0 0.00 0.00 0.00 73 1012.8
20260505233636 51 30 2.0 10.0 0.00 0.00 0.00 73 1012.7
20260505232736 52 51 2.0 5.0 0.00 0.00 0.00 73 1012.9
20260505231836 52 22 2.0 14.0 0.00 0.00 0.00 72 1012.9
20260505230936 52 37 3.0 14.0 0.00 0.00 0.00 72 1012.9
20260505230037 52 21 4.0 13.0 0.00 0.00 0.00 72 1013.0
20260505225436 52 18 4.0 13.0 0.00 0.00 0.00 72 1012.9
20260505224536 52 18 3.0 14.0 0.00 0.00 0.00 72 1012.8
20260505223635 52 9 3.0 14.0 0.00 0.00 0.00 73 1012.9
20260505222736 53 19 4.0 17.0 0.00 0.00 0.00 74 1012.9
20260505221836 53 29 3.0 11.0 0.00 0.00 0.00 77 1012.9
20260505220936 53 41 2.0 7.0 0.00 0.00 0.00 77 1012.8
20260505220035 53 41 2.0 11.0 0.00 0.00 0.00 77 1012.7
20260505215435 53 75 1.0 6.0 0.00 0.00 0.00 78 1012.7
20260505214536 53 80 1.0 6.0 0.00 0.00 0.00 78 1012.6
20260505213636 54 112 1.0 12.0 0.00 0.00 0.00 77 1012.5
20260505212736 54 45 2.0 12.0 0.00 0.00 0.00 76 1012.6
20260505211836 54 39 2.0 10.0 0.00 0.00 0.00 75 1012.6
20260505210936 55 46 2.0 11.0 0.00 0.00 0.00 73 1012.7
20260505210036 55 44 2.0 11.0 0.00 0.00 0.00 71 1012.5
20260505205436 55 59 2.0 7.0 0.00 0.00 0.00 69 1012.7
20260505204536 55 85 1.0 5.0 0.00 0.00 0.00 66 1012.5
20260505203636 55 100 1.0 5.0 0.00 0.00 0.00 66 1012.4
20260505202736 55 90 1.0 5.0 0.00 0.00 0.00 65 1012.3
20260505201836 55 104 1.0 5.0 0.00 0.00 0.00 67 1012.3
20260505200957 56 128 1.0 6.0 0.00 0.00 0.00 68 1012.2
20260505200036 56 127 1.0 5.0 0.00 0.00 0.00 69 1012.1
20260505195436 56 146 2.0 6.0 0.00 0.00 0.00 69 1012.0
20260505194536 56 154 2.0 6.0 0.00 0.00 0.00 70 1011.8
20260505193635 56 150 1.0 7.0 0.00 0.00 0.00 70 1011.7
20260505192736 56 139 1.0 5.0 0.00 0.00 0.00 69 1011.5
20260505191835 56 129 1.0 5.0 0.00 0.00 0.00 68 1011.5
20260505190936 57 147 1.0 7.0 0.00 0.00 0.00 66 1011.5
20260505190036 57 136 2.0 7.0 0.00 0.00 0.00 64 1011.4
20260505185436 57 136 2.0 7.0 0.00 0.00 0.00 64 1011.3
20260505184536 57 148 1.0 10.0 0.00 0.00 0.00 63 1011.2
20260505183636 57 151 2.0 10.0 0.00 0.00 0.00 62 1011.1
20260505182757 57 138 1.0 6.0 0.00 0.00 0.00 62 1010.9
20260505181836 58 139 1.0 5.0 0.00 0.00 0.00 61 1010.9
20260505180957 58 126 1.0 5.0 0.00 0.00 0.00 61 1010.9
20260505180057 58 111 1.0 6.0 0.00 0.00 0.00 61 1011.0
20260505175435 58 119 2.0 8.0 0.00 0.00 0.00 61 1011.0
20260505174535 58 150 2.0 10.0 0.00 0.00 0.00 61 1010.9
20260505173657 58 145 2.0 10.0 0.00 0.00 0.00 60 1011.0
20260505172757 59 140 2.0 10.0 0.00 0.00 0.00 60 1011.0
20260505171857 59 145 2.0 10.0 0.00 0.00 0.00 59 1011.0
20260505170935 59 156 3.0 10.0 0.00 0.00 0.00 59 1011.1
20260505170035 59 162 2.0 8.0 0.00 0.00 0.00 58 1011.2
20260505165456 59 154 2.0 8.0 0.00 0.00 0.00 58 1011.3
20260505164535 59 145 2.0 8.0 0.00 0.00 0.00 58 1011.2
20260505163635 59 153 3.0 10.0 0.00 0.00 0.00 58 1011.1
20260505162735 60 154 3.0 11.0 0.00 0.00 0.00 56 1011.3
20260505161835 60 161 4.0 11.0 0.00 0.00 0.00 55 1011.2
20260505160935 60 160 4.0 11.0 0.00 0.00 0.00 53 1011.1
20260505152735 61 155 3.0 8.0 0.00 0.00 0.00 51 1011.2
20260505151835 62 107 2.0 8.0 0.00 0.00 0.00 51 1011.1
20260505150935 62 44 1.0 6.0 0.00 0.00 0.00 50 1011.1
20260505124535 62 15 2.0 11.0 0.00 0.00 0.00 52 1011.7
20260505123635 62 39 2.0 11.0 0.00 0.00 0.00 50 1011.7
20260505122735 62 33 2.0 11.0 0.00 0.00 0.00 50 1011.8
20260505121835 62 14 3.0 12.0 0.00 0.00 0.00 51 1011.8
20260505120935 62 15 2.0 12.0 0.00 0.00 0.00 49 1011.8
20260505120035 62 44 2.0 12.0 0.00 0.00 0.00 52 1011.8
20260505115435 62 53 2.0 11.0 0.00 0.00 0.00 52 1011.9
20260505114535 62 49 3.0 12.0 0.00 0.00 0.00 50 1011.9
20260505113635 62 36 3.0 12.0 0.00 0.00 0.00 50 1012.0
20260505112735 61 24 3.0 12.0 0.00 0.00 0.00 53 1011.9
20260505111835 61 7 2.0 12.0 0.00 0.00 0.00 55 1012.1
20260505110935 60 24 3.0 12.0 0.00 0.00 0.00 56 1012.0
20260505101835 61 37 2.0 10.0 0.00 0.00 0.00 58 1012.5
20260505100935 61 20 2.0 10.0 0.00 0.00 0.00 58 1012.5
20260505100035 61 42 3.0 8.0 0.00 0.00 0.00 60 1012.6
20260505095435 60 48 2.0 8.0 0.00 0.00 0.00 59 1012.8
20260505094535 59 54 2.0 13.0 0.00 0.00 0.00 61 1012.7
20260505093635 59 61 3.0 13.0 0.00 0.00 0.00 63 1012.7
20260505092735 58 36 2.0 13.0 0.00 0.00 0.00 64 1012.7
20260505091835 58 26 2.0 7.0 0.00 0.00 0.00 68 1012.9
20260505090935 57 356 2.0 8.0 0.00 0.00 0.00 70 1013.0
20260505090035 56 38 3.0 8.0 0.00 0.00 0.00 68 1012.9
20260505085435 56 34 2.0 8.0 0.00 0.00 0.00 69 1013.0
20260505084535 55 51 2.0 8.0 0.00 0.00 0.00 73 1013.0